Weather History for KRND - November, 2012

Change the Weather History Date:

Thursday, November 1, 2012

  Actual Average Record
Temperature  
Mean Temperature 70 °F -  
Max Temperature 83 °F 73 °F 87 °F (2001)
Min Temperature 57 °F 54 °F 42 °F (2005)
Cooling Degree Days 5    
Growing Degree Days 20 (Base 50)    
Moisture  
Dew Point 65 °F    
Average Humidity 93    
Maximum Humidity 100    
Minimum Humidity 43    
Precipitation  
Precipitation 0.00 in - - ()
Sea Level Pressure  
Sea Level Pressure 30.02 in    
Wind  
Wind Speed 3 mph (WSW)    
Max Wind Speed 12 mph    
Max Gust Speed -    
Visibility 5 miles    
Events Fog    
Averages and records for this station are not official NWS values.
T = Trace of Precipitation, MM = Missing Value Source: NWS Daily Summary

Daily Weather History Graph

Daily Weather History Graph

Search for Another Location

Airport or City:

Trip Planner

Search our weather history database for the weather conditions in past years. The results will help you decide how hot, cold, wet, or windy it might be!

Date:

Astronomy

Nov. 01, 2012 Rise Set
Actual Time 7:46 AM CDT 6:46 PM CDT
Civil Twilight 7:22 AM CDT 7:10 PM CDT
Nautical Twilight 6:53 AM CDT 7:38 PM CDT
Astronomical Twilight 6:26 AM CDT 8:06 PM CDT
Moon 8:53 PM CDT (11/1) 10:11 AM CDT (11/1)
Length of Visible Light 11h 48m
Length of Day
10h 59m
Waning Gibbous, 93% of the Moon is Illuminated
Nov 1
Waning Gibbous
Nov 6
Last Quarter
Nov 13
New
Nov 20
First Quarter
Nov 28
Full

Hourly Weather History & Observations

Time (CDT) Temp. Heat Index Dew Point Humidity Pressure Visibility Wind Dir Wind Speed Gust Speed Precip Events Conditions
12:55 AM 60.3 °F - 57.7 °F 91% 30.04 in 10.0 mi Calm Calm - N/A   Clear
1:55 AM 59.0 °F - 57.9 °F 96% 30.03 in 10.0 mi West 4.6 mph - N/A   Clear
2:55 AM 65.7 °F - 64.4 °F 96% 30.02 in 10.0 mi West 5.8 mph - N/A   Clear
3:26 AM 62.6 °F - 62.6 °F 100% 30.02 in 8.0 mi Calm Calm - N/A   Clear
3:42 AM 59.0 °F - 59.0 °F 100% 30.02 in 8.0 mi Calm Calm - N/A   Scattered Clouds
3:55 AM 57.7 °F - 57.4 °F 99% 30.02 in 10.0 mi WNW 3.5 mph - N/A   Scattered Clouds
4:00 AM 57.2 °F - 57.2 °F 100% 30.02 in 10.0 mi Calm Calm - N/A   Scattered Clouds
4:03 AM 57.2 °F - 57.2 °F 100% 30.02 in 10.0 mi WNW 3.5 mph - N/A   Mostly Cloudy
4:07 AM 59.0 °F - 57.2 °F 94% 30.02 in 10.0 mi West 3.5 mph - N/A   Mostly Cloudy
4:11 AM 59.0 °F - 59.0 °F 100% 30.02 in 10.0 mi West 3.5 mph - N/A   Mostly Cloudy
4:40 AM 60.8 °F - 60.8 °F 100% 30.01 in 10.0 mi West 3.5 mph - N/A   Overcast
4:51 AM 62.6 °F - 62.6 °F 100% 30.01 in 10.0 mi West 4.6 mph - N/A   Overcast
4:55 AM 62.4 °F - 62.1 °F 99% 30.01 in 10.0 mi West 3.5 mph - N/A   Overcast
5:07 AM 66.2 °F - 66.2 °F 100% 30.01 in 7.0 mi WSW 3.5 mph - N/A   Overcast
5:13 AM 68.0 °F - 68.0 °F 100% 30.01 in 6.0 mi WSW 3.5 mph - N/A   Overcast
5:15 AM 68.0 °F - 68.0 °F 100% 30.01 in 5.0 mi WSW 3.5 mph - N/A   Overcast
5:17 AM 68.0 °F - 68.0 °F 100% 30.01 in 4.0 mi WSW 3.5 mph - N/A   Overcast
5:21 AM 68.0 °F - 68.0 °F 100% 30.01 in 3.0 mi WSW 3.5 mph - N/A   Overcast
5:22 AM 68.0 °F - 68.0 °F 100% 30.01 in 2.5 mi WSW 4.6 mph - N/A   Overcast
5:24 AM 68.0 °F - 68.0 °F 100% 30.01 in 2.0 mi WSW 4.6 mph - N/A   Overcast
5:25 AM 68.0 °F - 68.0 °F 100% 30.01 in 1.8 mi WSW 4.6 mph - N/A   Overcast
5:27 AM 68.0 °F - 68.0 °F 100% 30.01 in 1.5 mi WSW 4.6 mph - N/A   Overcast
5:30 AM 68.0 °F - 68.0 °F 100% 30.01 in 1.2 mi WSW 3.5 mph - N/A   Overcast
5:34 AM 68.0 °F - 68.0 °F 100% 30.01 in 1.0 mi WSW 4.6 mph - N/A   Mist
5:38 AM 68.0 °F - 68.0 °F 100% 30.01 in 0.8 mi WSW 4.6 mph - N/A   Mist
5:39 AM 68.0 °F - 68.0 °F 100% 30.01 in 0.8 mi WSW 3.5 mph - N/A   Mist
5:42 AM 68.0 °F - 68.0 °F 100% 30.01 in 0.8 mi WSW 3.5 mph - N/A   Mist
5:44 AM 68.0 °F - 68.0 °F 100% 30.01 in 0.5 mi WSW 3.5 mph - N/A Fog Fog
5:48 AM 68.0 °F - 68.0 °F 100% 30.01 in 0.5 mi WSW 3.5 mph - N/A Fog Fog
5:55 AM 68.2 °F - 68.2 °F 100% 30.01 in 0.5 mi WSW 4.6 mph - N/A Fog Fog
6:04 AM 68.0 °F - 68.0 °F 100% 30.01 in 0.5 mi WSW 4.6 mph - N/A Fog Fog
6:05 AM 68.0 °F - 68.0 °F 100% 30.01 in 0.5 mi WSW 5.8 mph - N/A Fog Fog
6:19 AM 68.0 °F - 68.0 °F 100% 30.02 in 0.5 mi West 4.6 mph - N/A Fog Fog
6:20 AM 68.0 °F - 68.0 °F 100% 30.02 in 0.5 mi WSW 4.6 mph - N/A Fog Fog
6:21 AM 68.0 °F - 68.0 °F 100% 30.02 in 0.5 mi WSW 4.6 mph - N/A Fog Fog
6:22 AM 68.0 °F - 68.0 °F 100% 30.02 in 0.8 mi WSW 4.6 mph - N/A   Mist
6:33 AM 68.0 °F - 68.0 °F 100% 30.02 in 0.2 mi West 5.8 mph - N/A   Mist
6:35 AM 68.0 °F - 68.0 °F 100% 30.02 in 1.0 mi WSW 4.6 mph - N/A   Mist
6:41 AM 68.0 °F - 68.0 °F 100% 30.04 in 0.4 mi West 3.5 mph - N/A Fog Fog
6:48 AM 68.0 °F - 68.0 °F 100% 30.02 in 0.4 mi West 4.6 mph - N/A Fog Fog
6:55 AM 67.8 °F - 67.8 °F 100% 30.03 in 0.4 mi West 5.8 mph - N/A Fog Fog
7:17 AM 68.0 °F - 68.0 °F 100% 30.03 in 0.4 mi WSW 5.8 mph - N/A Fog Fog
7:26 AM 68.0 °F - 68.0 °F 100% 30.03 in 0.5 mi WSW 4.6 mph - N/A   Overcast
7:40 AM 68.0 °F - 68.0 °F 100% 30.04 in 1.0 mi WSW 6.9 mph - N/A   Mist
7:49 AM 68.0 °F - 68.0 °F 100% 30.05 in 0.4 mi WSW 5.8 mph - N/A Fog Fog
7:55 AM 67.8 °F - 67.8 °F 100% 30.04 in 0.4 mi West 4.6 mph - N/A Fog Fog
8:08 AM 68.0 °F - 68.0 °F 100% 30.05 in 1.0 mi WSW 5.8 mph - N/A   Overcast
8:15 AM 68.0 °F - 68.0 °F 100% 30.05 in 1.5 mi Variable 4.6 mph - N/A   Overcast
8:25 AM 68.0 °F - 68.0 °F 100% 30.05 in 2.0 mi WSW 4.6 mph - N/A   Overcast
8:55 AM 68.0 °F - 68.0 °F 100% 30.06 in 2.0 mi West 4.6 mph - N/A   Overcast
9:27 AM 68.0 °F - 68.0 °F 100% 30.08 in 3.0 mi West 4.6 mph - N/A   Overcast
9:34 AM 68.0 °F - 68.0 °F 100% 30.07 in 3.0 mi Variable 6.9 mph - N/A   Overcast
9:55 AM 69.3 °F - 69.1 °F 99% 30.08 in 3.0 mi SW 5.8 mph - N/A   Overcast
10:10 AM 69.8 °F - 69.8 °F 100% 30.09 in 6.0 mi West 5.8 mph - N/A   Overcast
10:16 AM 69.8 °F - 69.8 °F 100% 30.08 in 6.0 mi West 3.5 mph - N/A   Overcast
10:39 AM 71.6 °F - 68.0 °F 88% 30.08 in 10.0 mi Calm Calm - N/A   Scattered Clouds
10:55 AM 72.7 °F - 68.9 °F 88% 30.08 in 9.0 mi Calm Calm - N/A   Scattered Clouds
11:55 AM 76.5 °F - 68.4 °F 76% 30.07 in 7.0 mi SSW 5.8 mph - N/A   Partly Cloudy
12:55 PM 79.2 °F - 67.3 °F 67% 30.05 in 10.0 mi Variable 4.6 mph - N/A   Scattered Clouds
1:55 PM 81.7 °F 82.7 °F 62.4 °F 52% 30.02 in 10.0 mi SSW 9.2 mph - N/A   Clear
2:55 PM 82.8 °F 83.4 °F 62.1 °F 49% 29.99 in 10.0 mi WSW 6.9 mph - N/A   Clear
3:55 PM 83.3 °F 83.1 °F 58.8 °F 43% 29.98 in 10.0 mi SSW 11.5 mph - N/A   Clear
4:55 PM 82.9 °F 83.2 °F 60.4 °F 46% 29.97 in 10.0 mi South 5.8 mph - N/A   Clear
5:55 PM 81.0 °F 81.6 °F 60.3 °F 49% 29.96 in 10.0 mi South 5.8 mph - N/A   Clear
6:55 PM 74.8 °F - 61.0 °F 62% 29.96 in 10.0 mi Calm Calm - N/A   Clear
7:55 PM 70.7 °F - 60.8 °F 71% 29.98 in 10.0 mi Calm Calm - N/A   Clear
8:55 PM 68.5 °F - 62.2 °F 80% 29.98 in 10.0 mi Calm Calm - N/A   Clear
9:55 PM 65.7 °F - 60.4 °F 83% 30.00 in 10.0 mi SE 6.9 mph - N/A   Clear
10:55 PM 66.7 °F - 60.6 °F 81% 30.01 in 10.0 mi Calm Calm - N/A   Clear
11:55 PM 65.8 °F - 61.3 °F 85% 30.00 in 10.0 mi Calm Calm - N/A   Clear